Weather home | Your neighborhood | Marine | Radar | Hurricane | Almanac

Daily weather history


Statistical History for Saturday, August 12, 2017

St. Petersburg Airport, FL


  Actual Average Record
Temperature
Mean Temperature -  
Max Temperature 89 °F 96 °F (1951)
Min Temperature 75 °F 70 °F (1949)
Cooling Degree Days    
Growing Degree Days 34 (Base - )  
Moisture
Dew Point   
Average Humidity    
Maximum Humidity    
Minimum Humidity    
Precipitation
Precipitation - - ()
Wind
Wind Speed   
Max Wind Speed   
Max Gust Speed   
Visibility   
Events   
Averages and records for this station are not official NWS values.
Key: T is trace of precipitation, MM is missing value
Source: NWS Daily Summary
Seasonal Weather Averages
Time(EDT)TemperatureDew PointHumidity Sea Level Pressure Visibility Wind DirectionWind SpeedGust SpeedPrecipitationEventsConditions
12:53 AM 82.0 °F 75.9 °F 82% 30.01 in 10.0 miles Calm Calm - N/A   Partly Cloudy
1:53 AM 82.0 °F 75.9 °F 82% 29.99 in 10.0 miles Calm Calm - N/A   Partly Cloudy
2:53 AM 82.0 °F 75.9 °F 82% 29.99 in 10.0 miles South 3.5 mph - N/A   Partly Cloudy
3:53 AM 81.0 °F 77.0 °F 88% 29.98 in 10.0 miles SSE 6.9 mph - N/A   Clear
4:53 AM 81.0 °F 75.9 °F 85% 29.98 in 10.0 miles SSE 3.5 mph - N/A   Partly Cloudy
5:53 AM 81.0 °F 75.9 °F 85% 29.99 in 10.0 miles South 5.8 mph - N/A   Clear
6:20 AM 81.0 °F 75.0 °F 82% 29.99 in 10.0 miles South 5.8 mph - N/A   Partly Cloudy
6:53 AM 80.1 °F 73.9 °F 81% 29.99 in 10.0 miles South 6.9 mph - N/A   Clear
7:53 AM 82.0 °F 75.0 °F 79% 30.01 in 10.0 miles South 4.6 mph - N/A Thunderstorm Scattered Clouds
8:39 AM 81.0 °F 73.0 °F 77% 30.04 in 10.0 miles West 18.4 mph 23.0 mph N/A   Mostly Cloudy
8:46 AM 79.0 °F 73.0 °F 82% 30.05 in 10.0 miles West 16.1 mph - N/A   Overcast
8:53 AM 79.0 °F 73.0 °F 82% 30.05 in 10.0 miles West 16.1 mph - N/A   Overcast
9:01 AM 78.1 °F 72.0 °F 81% 30.05 in 10.0 miles West 10.4 mph - N/A Thunderstorm Overcast
9:22 AM 77.0 °F 73.0 °F 88% 30.04 in 4.0 miles West 8.1 mph - 0.02 in Rain Light Rain
9:40 AM 79.0 °F 73.9 °F 84% 30.04 in 10.0 miles WNW 3.5 mph - 0.02 in Rain , Thunderstorm Light Rain
9:53 AM 80.1 °F 73.9 °F 81% 30.04 in 10.0 miles North 3.5 mph - 0.03 in   Mostly Cloudy
10:53 AM 82.9 °F 73.0 °F 72% 30.04 in 10.0 miles ENE 3.5 mph - N/A   Mostly Cloudy
11:53 AM 84.9 °F 75.0 °F 72% 30.02 in 10.0 miles Calm Calm - N/A   Scattered Clouds
12:53 PM 89.1 °F 75.9 °F 65% 30.01 in 10.0 miles NNE 6.9 mph - N/A   Clear
1:53 PM 91.0 °F 75.0 °F 59% 30.00 in 10.0 miles Variable 4.6 mph - N/A   Clear
2:53 PM 91.0 °F 73.9 °F 57% 29.99 in 10.0 miles West 6.9 mph - N/A   Scattered Clouds
3:53 PM 91.9 °F 73.0 °F 54% 29.98 in 10.0 miles NW 13.8 mph - N/A   Partly Cloudy
4:53 PM 91.0 °F 73.0 °F 55% 29.97 in 10.0 miles West 10.4 mph - N/A   Scattered Clouds
5:53 PM 90.0 °F 75.9 °F 63% 29.97 in 10.0 miles WNW 8.1 mph - N/A   Scattered Clouds
6:06 PM 90.0 °F 75.0 °F 61% 29.97 in 10.0 miles WNW 8.1 mph - N/A Thunderstorm Scattered Clouds
6:21 PM 89.1 °F 73.9 °F 61% 29.96 in 10.0 miles WNW 9.2 mph - N/A   Scattered Clouds
6:53 PM 88.0 °F 73.0 °F 61% 29.96 in 10.0 miles West 10.4 mph - N/A   Scattered Clouds
7:53 PM 87.1 °F 72.0 °F 61% 29.97 in 10.0 miles WNW 6.9 mph - N/A   Partly Cloudy
8:53 PM 86.0 °F 73.9 °F 67% 29.98 in 10.0 miles WSW 4.6 mph - N/A   Partly Cloudy
9:53 PM 84.9 °F 75.0 °F 72% 29.98 in 10.0 miles West 3.5 mph - N/A   Clear
10:53 PM 84.9 °F 75.0 °F 72% 30.00 in 10.0 miles South 3.5 mph - N/A   Clear
11:53 PM 84.0 °F 77.0 °F 79% 30.00 in 10.0 miles Calm Calm - N/A   Clear
ADVERTISEMENT
Enter city or zip code to search weather conditions:


  • 490 First Avenue South
  • St. Petersburg, FL 33701
  • 727-893-8111